Helicity
69 102 52 47 54 106 101 35 19 37 61 52 37 55 19 55 -70 -23 -28 7 -11 -15 -24 -10 16 1 8 11 4 16 14 3 9 9 15 14 14 10 10 4 8 7 8 13
74 62 62 62 85 97 45 29 63 43 34 -19 -38 -31 42 45 -5 -37 -30 11 -15 -16 5 -23 17 16 27 17 17 18 22 12 6 2 19 25 22 14 8 7 6 7 5 8
60 61 79 90 66 68 57 22 22 6 -7 -13 -57 5 13 -1 -59 -39 -10 -6 -14 15 19 -20 7 27 31 23 23 21 23 9 15 14 7 14 11 19 16 5 0 0 1 -5
89 72 60 86 56 68 37 90 52 24 -32 4 -75 7 -1 57 16 5 -1 -5 2 11 19 8 4 31 29 20 4 11 6 13 8 12 15 7 21 20 24 14 9 1 4 3
79 69 32 67 72 82 93 74 43 9 49 17 -30 24 0 17 24 22 -20 -4 -3 0 19 -6 -1 42 2 -8 -2 10 -12 8 11 9 17 19 23 9 15 14 10 7 7 5
54 30 50 58 66 79 110 82 76 71 53 43 4 16 -21 -17 21 63 57 27 -4 -16 5 22 18 20 -6 -8 -7 4 2 -9 7 8 12 23 22 18 21 12 11 15 12 4
68 67 69 59 79 86 93 77 95 63 59 61 67 16 53 10 -25 43 4 37 -10 0 -1 -13 -4 14 -1 -8 -12 9 4 -9 -5 16 11 16 26 22 22 22 6 10 12 19
69 78 63 81 69 100 86 31 93 62 36 30 53 38 34 46 38 -10 -33 84 -3 13 8 24 17 -5 30 -1 -1 -1 9 2 -2 6 21 18 28 23 26 24 36 14 1 5
52 58 16 55 47 61 93 89 18 103 61 51 43 53 10 36 30 63 45 31 44 11 22 49 42 18 7 5 29 20 15 15 9 13 11 17 26 18 22 40 29 20 15 9
34 75 18 30 29 29 44 62 95 102 52 61 61 33 54 29 54 87 75 17 38 52 68 51 66 37 39 69 56 58 44 33 30 21 22 22 27 31 22 24 25 22 23 8
29 65 47 31 67 58 107 89 56 43 36 49 41 12 126 53 61 43 18 39 29 7 47 81 48 35 35 100 142 108 78 42 32 29 25 21 26 25 29 32 27 28 22 23
21 35 30 30 29 52 13 34 42 94 68 84 104 97 77 91 83 89 92 56 30 -12 -49 29 82 50 62 71 153 248 98 89 61 38 22 28 27 28 30 34 30 26 29 25
46 59 53 53 53 62 65 38 21 24 31 15 54 57 51 52 89 105 115 117 117 103 176 182 129 115 133 138 151 193 145 95 88 63 31 22 26 31 32 37 23 30 32 23
70 71 84 74 30 31 41 64 49 51 43 34 44 33 14 14 46 100 98 107 102 67 77 133 190 158 139 92 126 203 165 131 111 91 69 52 32 31 30 40 44 34 27 30
124 97 94 67 73 109 50 31 32 41 29 57 41 51 35 6 24 16 69 106 97 118 104 114 156 206 122 131 176 124 116 79 110 128 110 92 62 43 58 66 69 64 53 40
99 117 107 92 81 88 84 97 77 88 83 65 65 51 53 62 52 54 61 78 102 88 170 259 191 162 97 127 140 186 138 84 45 59 84 93 72 82 107 112 91 91 77 66
87 117 137 88 155 85 80 210 176 123 127 155 45 155 47 48 55 106 116 118 115 158 170 184 236 257 258 221 160 160 142 99 28 69 61 53 106 100 136 112 68 73 69 70
63 92 176 91 144 102 147 157 181 205 158 162 146 116 78 125 137 115 88 89 109 110 123 159 162 180 208 217 171 156 93 100 80 75 69 80 142 158 143 85 29 59 66 71
46 18 131 207 83 170 92 139 155 202 133 162 110 65 76 83 89 156 113 128 128 125 147 154 161 161 165 169 175 178 155 130 191 161 96 88 116 80 110 78 66 86 115 111
46 59 23 103 135 76 169 106 96 121 120 86 94 60 24 -7 -7 139 152 169 189 182 155 160 173 180 197 218 213 262 285 317 256 119 99 71 27 35 18 39 55 104 129 134
66 60 54 25 60 71 85 71 57 133 158 145 85 46 36 40 171 190 184 189 170 170 188 204 188 175 145 126 155 167 188 229 260 146 137 113 57 61 70 86 104 77 67 72
78 88 64 72 70 42 109 49 129 125 111 119 75 81 67 123 79 53 104 110 124 168 208 194 180 162 143 116 107 148 141 87 105 175 159 110 95 103 108 98 87 80 61 45
51 119 124 121 139 109 87 126 121 118 116 85 84 58 60 89 70 91 117 140 138 147 151 126 141 150 112 108 85 80 87 81 77 82 88 149 137 122 108 95 73 56 55 55
28 48 74 65 63 84 91 77 104 124 120 109 65 52 33 29 43 70 91 116 133 137 150 120 108 100 120 89 71 64 57 58 61 67 71 78 84 98 110 108 115 125 126 108
55 36 39 56 62 63 53 67 70 81 83 79 73 53 53 31 74 81 94 100 106 117 114 106 119 99 78 71 69 51 47 46 49 55 64 61 72 91 115 178 220 140 198 238
30 23 26 76 117 90 135 85 85 82 97 83 53 41 46 32 63 79 107 119 157 137 133 117 120 125 84 37 48 49 43 41 45 49 54 81 69 72 82 92 145 245 184 204
Wind_Speed
32 46 51 41 44 39 40 41 31 23 9 2 11 11 0 30 50 43 38 25 29 41 40 47 61 56 42 43 49 56 55 56 55 53 51 45 48 45 46 47 43 41 38 36
35 59 52 47 43 43 42 40 24 18 2 33 26 31 8 15 46 37 35 21 22 42 31 51 62 61 54 46 45 53 56 55 53 50 46 43 41 44 44 44 43 46 42 42
48 43 39 49 47 41 37 40 32 29 20 28 38 29 24 7 34 33 25 22 25 26 13 48 66 64 62 50 43 54 56 56 54 50 50 44 38 38 45 45 47 48 47 46
54 36 42 54 51 45 37 36 31 28 26 42 37 36 33 12 21 21 25 25 24 20 27 19 66 67 64 62 24 44 57 56 56 53 53 48 45 42 40 44 45 48 49 47
47 46 44 54 54 43 33 29 31 32 39 26 36 36 29 13 27 24 22 36 26 32 27 24 38 69 63 56 4 18 21 50 55 55 46 46 44 43 36 42 35 43 45 48
43 52 46 46 40 42 38 29 31 36 41 50 42 48 33 19 47 44 34 68 39 71 34 40 56 33 46 38 30 10 3 6 38 52 49 47 43 41 37 37 40 40 39 47
44 45 43 46 48 45 45 37 45 52 51 47 33 45 30 11 17 34 50 55 82 26 25 32 21 21 30 17 19 6 9 2 10 46 46 49 47 42 46 45 44 45 42 41
54 51 49 47 54 52 59 55 53 60 57 54 34 49 36 37 43 39 45 31 38 30 26 54 25 25 25 20 16 12 6 10 9 20 41 42 40 35 44 48 36 48 46 46
56 56 43 51 54 48 55 76 61 65 52 59 35 41 34 31 42 33 28 44 49 33 31 50 67 25 20 17 16 11 13 12 16 18 20 31 37 30 39 41 40 44 40 20
41 58 48 51 55 60 56 54 64 58 57 63 40 51 35 31 26 10 27 44 36 46 61 53 59 39 22 28 19 21 16 19 20 27 30 29 32 35 30 33 37 35 25 43
47 51 43 45 58 54 54 60 66 66 68 61 62 47 31 23 20 11 13 27 30 35 62 62 44 34 32 21 22 22 23 21 28 36 28 31 33 32 33 39 31 24 13 9
48 47 45 55 48 60 60 58 54 70 55 61 52 36 30 29 23 23 10 9 24 30 48 23 29 30 31 27 23 29 21 31 31 35 38 36 35 34 32 35 33 30 23 16
42 49 49 40 47 51 61 61 64 65 71 64 65 50 29 26 23 20 31 20 13 10 21 24 22 26 32 34 33 22 38 38 34 35 41 41 39 39 36 37 33 28 28 24
38 44 56 49 49 47 59 56 62 57 66 67 56 41 36 30 30 30 32 25 16 9 14 17 21 23 31 34 27 23 33 30 32 36 40 41 42 41 37 33 36 37 30 32
34 45 46 32 25 35 46 54 53 61 67 63 53 58 42 35 29 31 33 30 23 21 17 17 18 26 30 24 25 26 25 35 38 41 41 38 39 38 38 34 31 34 35 34
30 36 35 34 31 30 33 39 46 51 53 55 49 34 35 32 32 30 28 27 24 20 19 18 17 9 9 9 10 23 24 26 33 45 46 42 40 41 34 33 32 31 33 34
37 35 40 36 36 36 35 37 37 44 47 50 56 44 36 31 32 31 29 27 25 21 19 16 13 11 13 13 9 16 15 14 15 25 26 30 38 44 39 27 27 30 33 35
43 43 43 44 42 53 33 37 40 42 42 45 47 44 39 35 28 27 26 26 25 22 19 17 17 17 17 17 13 13 10 12 8 20 31 33 32 31 29 23 21 28 34 34
32 33 48 48 49 45 37 36 39 43 41 41 41 35 30 28 28 32 27 24 20 19 18 17 15 15 14 12 14 13 13 7 8 8 18 20 20 17 20 23 27 30 31 29
30 33 42 46 49 58 38 40 43 45 49 39 37 35 34 30 46 43 27 21 19 18 16 14 13 11 12 16 15 12 12 13 10 10 12 14 15 13 14 19 23 22 22 20
42 44 46 37 43 35 40 43 39 50 46 44 39 35 35 41 47 18 19 20 18 17 16 14 14 13 11 12 12 14 14 17 23 19 16 15 17 16 16 17 19 17 15 16
39 43 47 43 46 46 39 35 43 43 42 42 37 36 37 34 23 13 12 14 12 12 12 13 13 13 12 13 12 13 15 13 16 20 19 16 19 21 18 18 19 19 16 16
38 40 42 43 39 29 31 30 34 38 44 44 42 34 30 31 21 14 13 15 15 14 15 14 14 16 18 18 18 17 19 18 18 20 21 23 22 22 23 22 21 22 24 25
30 31 34 32 29 28 32 32 35 38 40 40 37 32 27 25 18 19 18 15 15 14 17 18 18 19 20 20 19 21 22 23 23 24 25 27 27 27 29 31 33 34 35 34
30 21 30 36 32 31 31 32 35 38 38 36 33 28 26 23 22 22 20 17 16 17 19 21 23 21 21 24 27 26 29 27 27 30 30 30 29 30 29 31 37 33 38 42
13 21 23 35 27 35 30 34 37 39 39 36 33 30 28 24 22 24 22 23 21 18 19 23 26 25 30 26 28 28 30 29 30 31 32 33 35 33 30 31 34 34 33 35
Wind_Direction
244 240 236 239 243 269 258 254 258 268 102 263 283 304 63 150 155 146 141 144 135 132 128 132 159 147 121 122 137 158 156 149 151 153 166 188 176 179 179 184 197 203 209 210
243 238 238 242 248 253 254 253 254 275 294 247 268 270 329 147 164 159 155 165 152 140 132 143 166 163 151 134 134 153 167 167 167 180 188 196 202 191 187 190 199 196 204 207
243 250 245 240 242 247 254 251 249 259 264 279 242 276 280 170 159 163 176 176 161 221 176 148 175 173 176 148 136 160 169 171 173 178 177 194 211 210 193 192 192 192 195 197
245 253 240 237 239 242 250 261 256 251 257 256 250 271 270 176 174 181 179 174 205 191 226 162 171 183 185 187 122 141 167 176 173 180 177 184 190 202 212 203 201 193 192 195
246 244 237 235 237 244 260 258 256 249 263 271 259 260 267 155 233 210 199 224 209 163 162 157 155 182 208 215 131 112 114 209 194 187 208 199 196 201 224 210 230 213 207 201
259 241 242 240 243 245 257 251 256 259 264 258 256 253 261 145 172 168 178 221 225 175 163 232 226 236 233 237 244 253 124 101 236 208 213 206 211 212 225 225 218 222 229 210
247 240 241 241 239 244 242 240 245 248 251 261 272 259 283 225 259 160 172 172 193 186 189 165 172 233 238 236 244 230 254 205 272 229 231 215 214 224 200 199 211 208 221 230
238 238 238 241 241 240 238 239 245 246 250 254 274 258 276 256 254 189 164 212 179 179 204 213 227 237 233 236 237 247 238 262 273 274 244 244 245 253 218 190 244 189 168 208
242 246 241 244 242 245 239 238 249 258 260 255 269 263 278 281 262 260 150 160 226 218 217 231 224 236 231 202 229 235 261 265 271 275 285 267 260 275 248 243 244 223 236 238
259 244 250 244 243 244 248 242 242 250 248 248 261 257 275 271 272 253 143 156 170 231 229 232 231 239 237 241 241 249 263 266 271 270 273 276 275 269 278 273 262 270 296 210
255 252 245 243 239 239 241 244 244 251 250 256 252 264 277 286 278 249 181 150 156 218 228 229 237 238 242 236 244 246 262 266 266 266 272 275 274 275 276 269 283 301 337 20
250 254 253 244 247 247 242 244 244 243 248 254 268 270 283 276 280 258 229 218 152 163 164 208 227 233 240 244 242 250 268 269 269 266 265 270 276 277 279 277 281 285 304 317
249 248 245 251 250 248 243 242 249 246 250 252 253 264 287 276 272 265 246 245 246 174 220 219 217 236 246 258 265 272 259 265 270 269 266 268 271 273 277 275 280 287 287 295
255 255 247 259 250 242 239 244 244 250 248 251 254 267 269 269 262 258 252 250 244 196 187 200 216 242 261 264 267 275 269 259 265 266 266 268 270 273 277 279 276 278 287 286
264 252 251 265 273 252 247 243 244 247 248 256 265 256 264 263 264 261 254 251 247 247 236 217 213 258 263 259 264 266 273 261 263 264 268 272 275 278 278 278 279 279 281 284
275 260 258 258 265 263 254 253 249 251 254 258 263 273 269 264 264 262 260 254 250 246 254 254 253 239 225 250 256 269 277 276 268 262 266 271 276 280 284 277 276 279 281 284
256 268 255 253 262 254 253 260 260 257 258 261 258 270 264 267 265 262 259 260 261 261 261 265 268 268 277 282 282 282 282 292 290 277 285 279 283 279 282 277 277 280 280 282
258 260 262 258 261 246 273 270 270 266 267 267 269 275 265 264 269 271 266 263 267 268 270 268 275 281 284 283 287 298 320 304 308 284 273 281 294 291 284 282 283 283 280 281
279 270 260 260 250 269 271 276 270 268 270 283 275 274 274 271 268 264 268 268 266 270 278 284 291 291 294 302 309 307 299 333 330 312 294 306 312 304 284 286 295 292 283 284
286 280 267 257 257 255 275 281 281 279 262 292 283 276 273 266 261 256 260 263 271 277 279 286 297 311 314 307 313 318 302 293 308 305 298 308 321 330 316 295 307 322 301 289
270 268 262 268 264 271 273 281 282 262 269 290 288 281 275 269 275 242 253 262 266 269 271 280 288 295 311 326 325 312 310 295 278 284 286 291 300 312 318 330 331 332 355 321
276 271 266 272 270 268 291 287 272 280 285 289 289 285 278 279 280 267 238 244 256 258 265 272 281 289 303 314 312 305 306 319 304 283 280 287 298 302 316 322 326 327 340 348
280 278 276 273 282 304 305 301 300 297 287 288 288 292 286 278 269 254 250 255 256 252 256 266 274 280 291 295 294 296 297 306 301 291 287 282 291 301 300 304 310 309 306 305
304 296 287 290 294 302 298 302 307 305 301 302 296 288 288 276 262 257 257 253 251 255 260 266 272 279 285 295 297 293 290 292 294 289 288 287 286 293 294 292 293 297 294 297
310 334 304 292 299 301 301 303 306 308 309 310 304 296 286 274 261 256 254 253 252 259 264 269 274 279 287 290 280 288 284 292 291 288 290 289 293 293 298 303 301 305 303 297
48 338 328 305 318 303 310 308 306 304 306 310 306 297 287 278 265 255 253 254 254 261 271 272 278 285 279 287 286 292 290 294 291 290 291 292 289 293 299 298 302 313 317 314